When you browse on this site, cookies collect data to enhance your experience and personalize the content and advertising you see.
Visit our Privacy Policy to learn more. By continuing to use the site, you agree to this use of cookies and data.
  • In Hungary
  • List of Countries
  • For 7 days
  • Water Temperature
  • Weather Map
  • News
  • Weather Widgets
  • user-avatar
    Login

    Hourly Weather Suvorovo

    Today, 18 October, Friday

    Time Temperature Precipitation Wind Pressure Humidity
    00:00 +7°C° 0 mm 4 mps 759 mmHg 53%
    01:00 +8°C° 0 mm 3 mps 759 mmHg 54%
    02:00 +8°C° 0 mm 3 mps 759 mmHg 55%
    03:00 +7°C° 0 mm 3 mps 758 mmHg 56%
    04:00 +7°C° 0 mm 3 mps 758 mmHg 59%
    05:00 +7°C° 0 mm 3 mps 757 mmHg 62%
    06:00 +7°C° 0 mm 3 mps 757 mmHg 64%
    07:00 +9°C° 0 mm 3 mps 757 mmHg 63%
    08:00 +10°C° 0 mm 3 mps 757 mmHg 61%
    09:00 +11°C° 0 mm 4 mps 757 mmHg 60%
    10:00 +13°C° 0 mm 4 mps 756 mmHg 58%
    11:00 +14°C° 0 mm 4 mps 756 mmHg 55%
    12:00 +17°C° 0 mm 4 mps 756 mmHg 53%
    13:00 +17°C° 0 mm 4 mps 755 mmHg 53%
    14:00 +18°C° 0 mm 4 mps 755 mmHg 52%
    15:00 +18°C° 0 mm 4 mps 755 mmHg 52%
    16:00 +17°C° 0 mm 4 mps 755 mmHg 57%
    17:00 +14°C° 0 mm 3 mps 755 mmHg 62%
    18:00 +13°C° 0 mm 3 mps 754 mmHg 67%
    19:00 +13°C° 0 mm 3 mps 755 mmHg 68%
    20:00 +13°C° 0 mm 3 mps 755 mmHg 70%
    21:00 +13°C° 0 mm 2 mps 755 mmHg 72%
    22:00 +13°C° 0 mm 2 mps 755 mmHg 73%
    23:00 +13°C° 0 mm 2 mps 755 mmHg 75%

    Tomorrow, 19 October, Saturday

    Time Temperature Precipitation Wind Pressure Humidity
    00:00 +12°C° 0 mm 2 mps 755 mmHg 76%
    01:00 +12°C° 0 mm 2 mps 755 mmHg 79%
    02:00 +12°C° 0 mm 2 mps 755 mmHg 82%
    03:00 +10°C° 0 mm 2 mps 755 mmHg 85%
    04:00 +10°C° 0 mm 2 mps 755 mmHg 86%
    05:00 +10°C° 0 mm 2 mps 755 mmHg 87%
    06:00 +10°C° 0 mm 2 mps 755 mmHg 89%
    07:00 +12°C° 0 mm 2 mps 756 mmHg 85%
    08:00 +13°C° 0 mm 2 mps 756 mmHg 80%
    09:00 +14°C° 0 mm 2 mps 756 mmHg 76%
    10:00 +15°C° 0 mm 2 mps 757 mmHg 70%
    11:00 +16°C° 0 mm 2 mps 757 mmHg 64%
    12:00 +17°C° 0 mm 2 mps 757 mmHg 58%
    13:00 +17°C° 0 mm 2 mps 757 mmHg 57%
    14:00 +17°C° 0 mm 2 mps 757 mmHg 56%
    15:00 +17°C° 0 mm 2 mps 757 mmHg 54%
    16:00 +17°C° 0 mm 2 mps 757 mmHg 57%
    17:00 +16°C° 0 mm 2 mps 757 mmHg 60%
    18:00 +15°C° 0 mm 2 mps 758 mmHg 63%
    19:00 +15°C° 0 mm 1 mps 758 mmHg 65%
    20:00 +15°C° 0 mm 1 mps 758 mmHg 66%
    21:00 +14°C° 0 mm 1 mps 758 mmHg 68%
    22:00 +14°C° 0 mm 1 mps 759 mmHg 69%
    23:00 +14°C° 0 mm 2 mps 759 mmHg 70%

    Day after tomorrow, 20 October, Sunday

    Time Temperature Precipitation Wind Pressure Humidity
    00:00 +14°C° 0 mm 2 mps 759 mmHg 72%
    01:00 +13°C° 0 mm 2 mps 759 mmHg 73%
    02:00 +13°C° 0 mm 2 mps 759 mmHg 75%
    03:00 +13°C° 0 mm 2 mps 760 mmHg 77%
    04:00 +13°C° 0 mm 2 mps 760 mmHg 78%
    05:00 +13°C° 0 mm 2 mps 760 mmHg 80%
    06:00 +12°C° 0 mm 2 mps 760 mmHg 81%
    07:00 +12°C° 0 mm 2 mps 761 mmHg 81%
    08:00 +12°C° 0 mm 2 mps 761 mmHg 80%
    09:00 +12°C° 0 mm 2 mps 761 mmHg 79%
    10:00 +13°C° 0 mm 2 mps 761 mmHg 76%
    11:00 +14°C° 0 mm 2 mps 761 mmHg 73%
    12:00 +14°C° 0 mm 1 mps 761 mmHg 69%
    13:00 +14°C° 0 mm 1 mps 761 mmHg 67%
    14:00 +15°C° 0 mm 1 mps 761 mmHg 66%
    15:00 +15°C° 0 mm 1 mps 761 mmHg 64%
    16:00 +14°C° 0 mm 1 mps 761 mmHg 68%
    17:00 +13°C° 0 mm 1 mps 761 mmHg 71%
    18:00 +13°C° 0 mm 1 mps 761 mmHg 75%
    19:00 +12°C° 0 mm 1 mps 761 mmHg 77%
    20:00 +12°C° 0 mm 1 mps 762 mmHg 79%
    21:00 +11°C° 0 mm 1 mps 762 mmHg 81%
    22:00 +11°C° 0 mm 1 mps 762 mmHg 82%
    23:00 +11°C° 0 mm 1 mps 762 mmHg 82%

    21 October, Monday

    Time Temperature Precipitation Wind Pressure Humidity
    00:00 +10°C° 0 mm 1 mps 762 mmHg 83%
    01:00 +10°C° 0 mm 1 mps 762 mmHg 83%
    02:00 +10°C° 0 mm 1 mps 762 mmHg 83%
    03:00 +10°C° 0 mm 1 mps 762 mmHg 83%
    04:00 +10°C° 0 mm 1 mps 762 mmHg 82%
    05:00 +10°C° 0 mm 1 mps 762 mmHg 82%
    06:00 +9°C° 0 mm 1 mps 762 mmHg 81%
    07:00 +10°C° 0 mm 1 mps 762 mmHg 77%
    08:00 +11°C° 0 mm 1 mps 762 mmHg 72%
    09:00 +12°C° 0 mm 1 mps 762 mmHg 67%
    10:00 +13°C° 0 mm 1 mps 762 mmHg 63%
    11:00 +14°C° 0 mm 2 mps 762 mmHg 58%
    12:00 +16°C° 0 mm 2 mps 762 mmHg 54%
    13:00 +16°C° 0 mm 2 mps 762 mmHg 54%
    14:00 +16°C° 0 mm 2 mps 761 mmHg 53%
    15:00 +16°C° 0 mm 2 mps 761 mmHg 53%
    16:00 +15°C° 0 mm 2 mps 761 mmHg 56%
    17:00 +14°C° 0 mm 2 mps 761 mmHg 60%
    18:00 +13°C° 0 mm 2 mps 761 mmHg 63%
    19:00 +13°C° 0 mm 2 mps 761 mmHg 64%
    20:00 +12°C° 0 mm 2 mps 761 mmHg 65%
    21:00 +12°C° 0 mm 2 mps 760 mmHg 67%
    22:00 +10°C° 0 mm 2 mps 760 mmHg 68%
    23:00 +10°C° 0 mm 3 mps 760 mmHg 69%

    22 October, Tuesday

    Time Temperature Precipitation Wind Pressure Humidity
    00:00 +10°C° 0 mm 3 mps 760 mmHg 70%
    01:00 +9°C° 0 mm 3 mps 759 mmHg 72%
    02:00 +9°C° 0 mm 3 mps 759 mmHg 73%
    03:00 +9°C° 0 mm 3 mps 759 mmHg 75%
    04:00 +9°C° 0 mm 3 mps 759 mmHg 76%
    05:00 +8°C° 0 mm 3 mps 758 mmHg 76%
    06:00 +8°C° 0 mm 3 mps 758 mmHg 77%
    07:00 +8°C° 0 mm 4 mps 758 mmHg 73%
    08:00 +10°C° 0 mm 4 mps 758 mmHg 68%
    09:00 +12°C° 0 mm 5 mps 758 mmHg 63%
    10:00 +13°C° 0 mm 5 mps 757 mmHg 59%
    11:00 +14°C° 0 mm 6 mps 757 mmHg 55%
    12:00 +15°C° 0 mm 7 mps 756 mmHg 51%
    13:00 +16°C° 0 mm 7 mps 756 mmHg 51%
    14:00 +16°C° 0 mm 7 mps 755 mmHg 51%
    15:00 +16°C° 0 mm 7 mps 755 mmHg 51%
    16:00 +15°C° 0 mm 6 mps 754 mmHg 54%
    17:00 +14°C° 0 mm 6 mps 754 mmHg 57%
    18:00 +13°C° 0 mm 5 mps 754 mmHg 60%
    19:00 +13°C° 0 mm 5 mps 754 mmHg 62%
    20:00 +13°C° 0 mm 5 mps 753 mmHg 63%
    21:00 +13°C° 0 mm 5 mps 753 mmHg 64%
    22:00 +13°C° 0 mm 4 mps 753 mmHg 66%
    23:00 +12°C° 0 mm 4 mps 753 mmHg 68%

    23 October, Wednesday

    Time Temperature Precipitation Wind Pressure Humidity
    00:00 +12°C° 0 mm 3 mps 753 mmHg 69%
    01:00 +12°C° 0.2 mm 3 mps 754 mmHg 75%
    02:00 +12°C° 0.2 mm 3 mps 754 mmHg 81%
    03:00 +13°C° 0.2 mm 2 mps 754 mmHg 87%
    04:00 +11°C° 0 mm 3 mps 755 mmHg 88%
    05:00 +10°C° 0 mm 4 mps 755 mmHg 88%
    06:00 +10°C° 0 mm 4 mps 756 mmHg 89%
    07:00 +9°C° 0 mm 5 mps 756 mmHg 82%
    08:00 +9°C° 0 mm 5 mps 757 mmHg 76%
    09:00 +9°C° 0 mm 5 mps 758 mmHg 69%
    10:00 +10°C° 0 mm 5 mps 758 mmHg 65%
    11:00 +12°C° 0 mm 5 mps 758 mmHg 61%
    12:00 +12°C° 0 mm 4 mps 759 mmHg 57%
    13:00 +12°C° 0 mm 4 mps 759 mmHg 56%
    14:00 +12°C° 0 mm 4 mps 759 mmHg 54%
    15:00 +12°C° 0 mm 3 mps 759 mmHg 53%
    16:00 +11°C° 0 mm 3 mps 760 mmHg 56%
    17:00 +10°C° 0 mm 3 mps 760 mmHg 58%
    18:00 +9°C° 0 mm 3 mps 760 mmHg 61%
    19:00 +9°C° 0 mm 3 mps 760 mmHg 60%
    20:00 +8°C° 0 mm 2 mps 761 mmHg 60%
    21:00 +8°C° 0 mm 2 mps 761 mmHg 60%
    22:00 +7°C° 0 mm 2 mps 761 mmHg 61%
    23:00 +8°C° 0 mm 1 mps 761 mmHg 62%
    Show more